Connellys Springs, NC

1:23 AM EDT on August 29, 2016 (GMT -0400)
Morganton-Lenoir

Weather History for KMRN - January, 2014

Change the Weather History Date:

Friday, January 17, 2014

  Actual Average (KHKY) Record (KHKY)
Temperature  
Mean Temperature 35 °F -  
Max Temperature 51 °F 46 °F 73 °F (1974)
Min Temperature 19 °F 26 °F -3 °F (1977)
Degree Days  
Heating Degree Days 30    
Moisture  
Dew Point 19 °F    
Average Humidity 59    
Maximum Humidity 95    
Minimum Humidity 25    
Precipitation  
Precipitation 0.00 in - - ()
Sea Level Pressure  
Sea Level Pressure 29.93 in    
Wind  
Wind Speed 3 mph (WSW)    
Max Wind Speed 16 mph    
Max Gust Speed 23 mph    
Visibility 10 miles    
Events      
Averages and records for this station are not official NWS values.
T = Trace of Precipitation, MM = Missing Value Source: NWS Daily Summary

Daily Weather History Graph

Daily Weather History Graph

Search for Another Location

Airport or City:

Trip Planner

Search our weather history database for the weather conditions in past years. The results will help you decide how hot, cold, wet, or windy it might be!

Date:

Astronomy

Jan. 17, 2014 Rise Set
Actual Time 7:35 AM EST 5:38 PM EST
Civil Twilight 7:07 AM EST 6:05 PM EST
Nautical Twilight 6:36 AM EST 6:37 PM EST
Astronomical Twilight 6:05 AM EST 7:07 PM EST
Moon 7:18 PM EST (1/17) 8:06 AM EST (1/17)
Length of Visible Light 10h 58m
Length of Day
10h 02m
Full, 98% of the Moon is Illuminated
Jan 17
Full
Jan 24
Last Quarter
Jan 30
New
Feb 6
First Quarter
Feb 14
Full

Hourly Weather History & Observations

Time (EST) Temp. Windchill Dew Point Humidity Pressure Visibility Wind Dir Wind Speed Gust Speed Precip Events Conditions
12:15 AM 24.8 °F 20.5 °F 19.4 °F 80% 29.99 in 10.0 mi West 3.5 mph - N/A   Clear
12:35 AM 27.3 °F - 18.3 °F 69% 29.99 in 10.0 mi Calm Calm - N/A   Clear
12:55 AM 24.4 °F - 19.6 °F 82% 29.98 in 10.0 mi Calm Calm - N/A   Clear
1:15 AM 24.6 °F - 20.8 °F 86% 29.98 in 10.0 mi Calm Calm - N/A   Clear
1:35 AM 23.9 °F 16.8 °F 19.6 °F 84% 29.98 in 10.0 mi NNW 5.8 mph - N/A   Clear
1:55 AM 24.1 °F - 19.6 °F 83% 29.97 in 10.0 mi Calm Calm - N/A   Clear
2:15 AM 23.0 °F - 19.8 °F 87% 29.97 in 10.0 mi Calm Calm - N/A   Clear
2:35 AM 22.8 °F - 19.0 °F 85% 29.97 in 10.0 mi Calm Calm - N/A   Clear
2:55 AM 21.2 °F - 18.9 °F 91% 29.97 in 10.0 mi Calm Calm - N/A   Clear
3:15 AM 22.1 °F - 18.7 °F 87% 29.97 in 10.0 mi Calm Calm - N/A   Clear
3:35 AM 21.4 °F - 18.9 °F 90% 29.97 in 10.0 mi Calm Calm - N/A   Clear
3:55 AM 21.2 °F - 18.7 °F 90% 29.96 in 10.0 mi Calm Calm - N/A   Clear
4:15 AM 22.3 °F - 19.2 °F 88% 29.97 in 10.0 mi Calm Calm - N/A   Clear
4:35 AM 20.3 °F - 18.7 °F 93% 29.97 in 10.0 mi Calm Calm - N/A   Scattered Clouds
4:55 AM 20.8 °F - 19.0 °F 93% 29.95 in 10.0 mi Calm Calm - N/A   Scattered Clouds
5:15 AM 21.6 °F 16.8 °F 18.7 °F 89% 29.95 in 10.0 mi North 3.5 mph - N/A   Clear
5:35 AM 20.5 °F - 18.3 °F 91% 29.96 in 10.0 mi Calm Calm - N/A   Clear
5:55 AM 20.3 °F - 18.7 °F 93% 29.97 in 10.0 mi Calm Calm - N/A   Clear
6:15 AM 19.4 °F 14.3 °F 18.0 °F 94% 29.96 in 10.0 mi NW 3.5 mph - N/A   Clear
6:35 AM 21.9 °F - 19.4 °F 90% 29.97 in 10.0 mi Calm Calm - N/A   Clear
6:55 AM 20.1 °F - 18.7 °F 94% 29.97 in 10.0 mi Calm Calm - N/A   Clear
7:15 AM 19.6 °F - 18.3 °F 95% 29.97 in 10.0 mi Calm Calm - N/A   Scattered Clouds
7:35 AM 21.7 °F - 20.3 °F 94% 29.97 in 10.0 mi Calm Calm - N/A   Mostly Cloudy
7:55 AM 21.2 °F - 19.6 °F 93% 29.98 in 10.0 mi Calm Calm - N/A   Scattered Clouds
8:15 AM 21.4 °F - 20.1 °F 95% 29.98 in 10.0 mi Calm Calm - N/A   Scattered Clouds
8:35 AM 24.6 °F - 22.3 °F 91% 29.98 in 10.0 mi Calm Calm - N/A   Scattered Clouds
8:55 AM 27.3 °F - 22.8 °F 83% 29.99 in 10.0 mi Calm Calm - N/A   Scattered Clouds
9:15 AM 30.2 °F - 23.5 °F 76% 29.97 in 10.0 mi Calm Calm - N/A   Clear
9:35 AM 32.2 °F - 21.9 °F 66% 29.98 in 10.0 mi Calm Calm - N/A   Clear
9:55 AM 32.9 °F - 19.8 °F 59% 29.99 in 10.0 mi Calm Calm - N/A   Clear
10:15 AM 34.2 °F - 20.8 °F 58% 30.00 in 10.0 mi Calm Calm - N/A   Clear
10:35 AM 36.7 °F - 18.7 °F 48% 29.99 in 10.0 mi Calm Calm - N/A   Clear
10:55 AM 38.7 °F - 18.0 °F 43% 29.99 in 10.0 mi Calm Calm - N/A   Clear
11:15 AM 39.9 °F - 18.5 °F 42% 29.97 in 10.0 mi Calm Calm - N/A   Clear
11:35 AM 39.4 °F - 18.3 °F 43% 29.96 in 10.0 mi Calm Calm - N/A   Clear
11:55 AM 41.5 °F 39.6 °F 18.3 °F 39% 29.94 in 10.0 mi ESE 3.5 mph - N/A   Clear
12:15 PM 42.1 °F - 18.7 °F 39% 29.93 in 10.0 mi Calm Calm - N/A   Clear
12:35 PM 44.1 °F - 19.4 °F 37% 29.90 in - Calm Calm - N/A   Unknown
12:55 PM 46.2 °F 44.1 °F 21.0 °F 37% 29.88 in 10.0 mi South 4.6 mph - N/A   Clear
1:15 PM 47.5 °F - 20.5 °F 34% 29.87 in 10.0 mi SSE 5.8 mph - N/A   Clear
1:35 PM 49.3 °F - 20.7 °F 32% 29.85 in 10.0 mi SSE 4.6 mph - N/A   Clear
1:55 PM 50.2 °F - 19.4 °F 30% 29.84 in 10.0 mi South 9.2 mph 16.1 mph N/A   Clear
2:15 PM 50.7 °F - 18.9 °F 28% 29.83 in 10.0 mi South 8.1 mph - N/A   Clear
2:35 PM 51.3 °F - 18.9 °F 28% 29.83 in 10.0 mi South 9.2 mph - N/A   Clear
2:55 PM 50.9 °F - 18.5 °F 28% 29.83 in 10.0 mi SSW 10.4 mph 18.4 mph N/A   Clear
3:15 PM 50.2 °F - 18.5 °F 29% 29.83 in 10.0 mi SSW 16.1 mph 21.9 mph N/A   Clear
3:35 PM 49.3 °F - 18.9 °F 30% 29.83 in 10.0 mi SSW 12.7 mph 19.6 mph N/A   Clear
3:55 PM 48.7 °F - 19.2 °F 31% 29.83 in 10.0 mi South 16.1 mph 20.7 mph N/A   Clear
4:15 PM 48.7 °F - 20.1 °F 32% 29.83 in 10.0 mi South 10.4 mph - N/A   Clear
4:35 PM 49.8 °F - 20.1 °F 31% 29.82 in 10.0 mi SSW 15.0 mph 18.4 mph N/A   Clear
4:55 PM 49.5 °F - 19.2 °F 30% 29.83 in 10.0 mi South 10.4 mph - N/A   Clear
5:15 PM 48.9 °F - 16.0 °F 27% 29.83 in 10.0 mi SSW 11.5 mph 16.1 mph N/A   Clear
5:35 PM 47.8 °F - 14.0 °F 26% 29.84 in 10.0 mi SSW 12.7 mph 23.0 mph N/A   Clear
5:55 PM 47.3 °F - 13.3 °F 25% 29.85 in 10.0 mi SSW 11.5 mph 18.4 mph N/A   Clear
6:15 PM 46.4 °F 42.4 °F 12.7 °F 26% 29.85 in 10.0 mi SSW 8.1 mph 16.1 mph N/A   Clear
6:35 PM 46.4 °F 41.9 °F 12.6 °F 26% 29.86 in 10.0 mi SSW 9.2 mph - N/A   Clear
6:55 PM 44.2 °F 42.7 °F 13.3 °F 29% 29.88 in 10.0 mi WSW 3.5 mph - N/A   Clear
7:15 PM 44.1 °F 40.1 °F 18.5 °F 36% 29.89 in 10.0 mi NW 6.9 mph 16.1 mph N/A   Clear
7:35 PM 41.5 °F 38.6 °F 21.7 °F 45% 29.90 in 10.0 mi NW 4.6 mph - N/A   Clear
7:55 PM 40.6 °F 36.7 °F 22.3 °F 48% 29.90 in 10.0 mi NW 5.8 mph - N/A   Clear
8:15 PM 39.9 °F 37.8 °F 21.9 °F 49% 29.91 in 10.0 mi WNW 3.5 mph - N/A   Clear
8:35 PM 38.1 °F 34.6 °F 22.1 °F 53% 29.92 in 10.0 mi WNW 4.6 mph - N/A   Scattered Clouds
8:55 PM 38.7 °F 34.3 °F 21.6 °F 50% 29.92 in 10.0 mi West 5.8 mph - N/A   Clear
9:15 PM 37.8 °F 35.3 °F 21.2 °F 51% 29.93 in 10.0 mi West 3.5 mph - N/A   Clear
9:35 PM 36.9 °F 31.4 °F 20.5 °F 52% 29.93 in 10.0 mi West 6.9 mph - N/A   Clear
9:55 PM 36.3 °F 30.1 °F 19.9 °F 52% 29.94 in 10.0 mi WSW 8.1 mph - N/A   Clear
10:15 PM 35.8 °F 30.1 °F 20.1 °F 53% 29.95 in 10.0 mi West 6.9 mph - N/A   Clear
10:35 PM 35.2 °F 31.2 °F 19.9 °F 54% 29.95 in 10.0 mi NW 4.6 mph - N/A   Mostly Cloudy
10:55 PM 34.0 °F 29.8 °F 19.9 °F 56% 29.95 in 10.0 mi West 4.6 mph - N/A   Mostly Cloudy
11:15 PM 33.8 °F 28.6 °F 18.5 °F 54% 29.96 in 10.0 mi West 5.8 mph - N/A   Scattered Clouds
11:35 PM 32.5 °F 26.2 °F 17.1 °F 53% 29.95 in 10.0 mi West 6.9 mph - N/A   Scattered Clouds
11:55 PM 32.7 °F 28.3 °F 15.3 °F 49% 29.95 in 10.0 mi West 4.6 mph - N/A   Clear